SCP
0 0 0 0 0 0 0 0 0 0 0 0 0 0 0 0 0 0 0 0 0 0 0 0 0 0 0 0 0 1 2 2 2 2 2 2 1 1 1 1 0 0 0 0
0 0 0 0 0 0 0 0 0 0 0 0 0 0 0 0 0 0 0 0 0 0 0 0 0 0 0 0 0 1 1 2 3 3 2 2 2 1 1 1 0 0 0 0
0 0 0 0 0 0 0 0 0 0 0 0 0 0 0 0 0 0 0 0 0 0 0 0 0 0 0 0 0 0 1 2 3 3 3 3 2 2 1 0 0 0 0 0
0 0 0 0 0 0 0 0 0 0 0 0 0 0 0 0 0 0 0 0 0 0 0 0 0 0 0 0 0 0 1 1 2 3 3 3 2 2 1 1 0 0 0 0
0 0 0 0 0 0 0 0 0 0 0 0 0 0 0 0 0 0 0 0 0 0 0 0 0 0 0 0 0 0 0 1 2 3 3 3 3 2 2 1 1 0 0 0
0 0 0 0 0 0 0 0 0 0 0 0 0 0 0 0 0 0 0 0 0 0 0 0 0 0 0 0 0 0 0 0 1 2 3 3 3 2 2 2 1 0 0 0
0 0 0 0 0 0 0 0 0 0 0 0 0 0 0 0 0 0 0 0 0 0 0 0 0 0 0 0 0 0 0 0 0 1 2 2 2 2 2 2 1 1 0 0
0 0 0 0 0 0 0 0 0 0 0 0 0 0 0 0 0 0 0 0 0 0 0 0 0 0 0 0 0 0 0 0 0 0 1 1 2 2 2 2 2 1 1 0
0 0 0 0 0 0 0 0 0 0 0 0 0 0 0 0 0 0 0 0 0 0 0 0 0 0 0 0 0 0 0 0 0 0 0 1 1 1 2 2 2 1 1 1
0 0 0 0 0 0 0 0 0 0 0 0 0 0 0 0 0 0 0 0 0 0 0 0 0 0 0 0 0 0 0 0 0 0 0 0 0 1 1 1 1 1 1 1
0 0 0 0 0 0 0 0 0 0 0 0 0 0 0 0 0 0 0 0 0 0 0 0 0 0 0 0 0 0 0 0 0 0 0 0 0 0 1 1 1 1 1 1
0 0 0 0 0 0 0 0 0 0 0 0 0 0 0 0 0 0 0 0 0 0 0 0 0 0 0 0 0 0 0 0 0 0 0 0 0 0 0 0 1 1 1 1
0 0 0 0 0 0 0 0 0 0 0 0 0 0 0 0 0 0 0 0 0 0 0 0 0 0 0 0 0 0 0 0 0 0 0 0 0 0 0 0 0 1 1 2
0 0 0 0 0 0 0 0 0 0 0 0 0 0 0 0 0 0 0 0 0 0 0 0 0 0 0 0 0 0 0 0 0 0 0 0 0 0 0 0 0 1 2 2
0 0 0 0 0 0 0 0 0 0 0 0 0 0 0 0 0 0 0 0 0 0 0 0 0 0 0 0 0 0 0 0 0 0 0 0 0 0 0 0 0 1 2 2
0 0 0 0 0 0 0 0 0 0 0 0 0 0 0 0 0 0 0 0 0 0 0 0 0 0 0 0 0 0 0 0 0 0 0 0 0 0 0 0 0 1 1 2
0 0 0 0 0 0 0 0 0 0 0 0 0 0 0 0 0 0 0 0 0 0 0 0 0 0 0 0 0 0 0 0 0 0 0 0 0 0 0 0 0 1 1 1
0 0 0 0 0 0 0 0 0 0 0 0 0 0 0 0 0 0 0 0 0 0 0 0 0 0 0 0 0 0 0 0 0 0 0 0 0 0 0 0 0 0 1 1
0 0 0 0 0 0 0 0 0 0 0 0 0 0 0 0 0 0 0 0 0 0 0 0 0 0 0 0 0 0 0 0 0 0 0 0 0 0 0 0 0 0 0 0
0 0 0 0 0 0 0 0 0 0 0 0 0 0 0 0 0 0 0 0 0 0 0 0 0 0 0 0 0 0 0 0 0 0 0 0 0 0 0 0 0 0 0 0
0 0 0 0 0 0 0 0 0 0 0 0 0 0 0 0 0 0 0 0 0 0 0 0 0 0 0 0 0 0 0 0 0 0 0 0 0 0 0 0 0 0 0 0
0 0 0 0 0 0 0 0 0 0 0 0 0 0 0 0 0 0 0 0 0 0 0 0 0 0 0 0 0 0 0 0 0 0 0 0 0 0 0 0 0 0 0 0
0 0 0 0 0 0 0 0 0 0 0 0 0 0 0 0 0 0 0 0 0 0 0 0 0 0 0 0 0 0 0 0 0 0 0 0 0 0 0 0 0 0 0 0
0 0 0 0 0 0 0 0 0 0 0 0 0 0 0 0 0 0 0 0 0 0 0 0 0 0 0 0 0 0 0 0 0 0 0 0 0 0 0 0 0 0 0 0
0 0 0 0 0 0 0 0 0 0 0 0 0 0 0 0 0 0 0 0 0 0 0 0 0 0 0 0 0 0 0 0 0 0 0 0 0 0 0 0 0 0 0 0
0 0 0 0 0 0 0 0 0 0 0 0 0 0 0 0 0 0 0 0 0 0 0 0 0 0 0 0 0 0 0 0 0 0 0 0 0 0 0 0 0 0 0 0
Wind_Speed
1 3 4 5 5 4 5 7 10 8 5 6 11 15 14 9 8 9 7 6 5 5 4 2 2 1 1 1 0 0 1 2 2 2 2 2 3 3 3 2 3 3 3 4
3 5 4 2 3 3 5 8 9 7 4 6 10 15 14 9 8 8 7 6 5 4 3 2 2 1 1 1 1 1 1 0 1 1 2 2 2 2 2 2 3 3 3 3
6 1 1 2 3 4 7 9 9 8 7 5 9 12 9 5 5 6 6 5 5 4 4 3 2 2 2 2 2 1 1 1 1 1 2 2 2 2 2 2 2 2 2 3
4 1 2 3 5 5 7 5 6 7 7 5 4 9 7 5 6 5 4 4 4 4 3 3 2 2 2 2 1 1 1 0 0 1 2 3 3 2 2 1 2 2 2 2
3 2 3 4 4 4 3 3 5 6 6 7 6 8 9 4 7 5 4 3 3 2 2 2 2 2 2 1 1 1 0 0 0 1 2 3 2 1 1 2 3 2 2 2
2 1 2 2 1 2 1 1 1 2 3 7 7 9 9 4 5 4 3 2 2 2 2 2 2 1 1 2 1 1 0 0 0 1 1 2 2 2 2 2 2 2 1 1
2 3 2 1 1 2 2 2 2 3 4 6 2 7 9 4 3 4 4 3 2 1 1 1 1 1 1 2 2 1 1 1 1 2 2 2 2 3 3 2 2 2 2 1
4 5 4 4 4 4 5 5 4 5 6 5 4 9 6 2 2 3 3 3 2 1 2 2 2 2 1 2 2 2 1 1 1 1 2 2 2 2 2 2 2 2 2 2
5 4 0 2 2 4 4 5 3 3 3 6 7 7 7 3 3 2 2 1 1 1 2 2 2 2 2 2 2 2 2 1 1 1 1 2 2 2 2 1 1 1 1 1
3 4 2 1 1 2 3 3 3 4 5 8 8 8 6 3 3 2 1 1 1 2 2 2 2 2 2 2 2 2 2 2 2 1 1 1 1 1 1 1 1 1 1 1
3 3 2 3 7 7 5 4 5 4 4 6 8 7 2 4 2 2 3 3 2 3 3 2 2 2 2 2 2 1 2 1 1 1 1 1 1 1 1 1 1 1 1 1
4 3 5 6 3 3 5 7 7 6 7 7 8 10 0 3 2 2 3 3 3 4 3 3 2 2 2 2 2 2 2 1 1 1 0 0 0 0 1 1 1 2 1 1
5 4 3 3 3 4 6 7 8 6 5 7 10 10 1 2 4 3 4 5 4 4 3 3 2 2 2 2 2 1 1 1 1 1 0 0 1 1 1 1 1 2 2 2
4 6 9 11 7 5 7 9 9 9 9 11 16 16 10 7 7 7 6 6 5 4 4 3 3 2 2 2 2 2 1 1 1 1 1 1 1 1 1 1 1 2 2 2
4 6 8 11 9 7 11 13 14 16 16 15 16 17 16 11 9 9 7 6 5 5 5 5 4 3 3 3 2 2 1 1 1 1 1 1 1 1 1 1 1 2 2 2
5 6 5 8 9 9 13 17 18 19 18 19 19 20 13 10 9 9 8 7 7 7 6 5 4 4 4 4 3 2 2 2 1 1 2 2 1 1 1 2 1 1 2 2
7 6 6 9 5 5 16 17 17 15 15 14 18 18 10 10 10 9 8 8 8 8 6 6 5 5 5 4 3 3 2 1 1 2 2 2 2 2 2 2 2 2 2 3
9 8 6 5 4 15 11 3 12 15 16 16 15 13 11 10 9 7 7 7 8 7 6 6 5 5 4 3 3 2 1 1 2 2 2 2 2 2 2 2 3 3 3 3
10 9 6 6 10 14 10 5 7 10 14 12 14 13 10 6 6 7 6 6 6 6 5 5 4 4 3 2 2 2 2 2 2 3 3 3 3 3 3 3 3 3 3 3
5 8 8 8 10 13 8 3 4 5 12 7 10 11 8 4 7 6 3 3 4 4 3 3 2 1 2 2 2 2 2 3 3 4 3 3 3 3 4 3 3 3 3 3
6 8 11 12 12 12 4 3 6 8 8 2 8 9 8 8 8 4 3 3 3 2 2 2 1 1 1 1 2 2 2 3 3 3 3 3 3 3 3 3 3 3 3 3
11 9 10 9 11 13 5 8 10 7 1 2 5 6 7 7 6 4 3 3 2 2 2 2 1 1 1 1 2 2 2 3 2 2 2 3 3 3 3 3 3 3 3 3
11 11 8 11 11 4 8 9 6 2 4 4 5 5 6 6 6 5 4 3 3 2 2 2 2 1 1 1 2 2 3 2 2 2 3 3 3 3 3 3 3 3 3 3
7 4 6 9 11 7 7 6 5 5 6 5 4 4 5 5 5 4 4 3 3 2 2 2 2 2 2 1 2 3 2 2 2 3 3 3 3 3 3 3 3 3 3 4
8 8 7 10 8 5 8 9 8 6 5 4 4 4 5 5 5 4 4 3 3 2 2 2 2 2 3 2 2 2 2 2 3 3 3 3 3 3 3 4 4 5 5 5
9 11 11 11 9 8 7 6 7 7 7 6 5 4 3 5 5 4 4 3 2 2 2 2 2 2 2 2 3 3 2 2 3 3 3 3 3 3 3 4 4 6 7 8
Wind_Direction
106 190 214 216 223 258 261 262 272 282 301 282 269 275 279 277 266 265 264 260 259 268 281 295 305 300 301 299 285 239 191 188 177 169 181 192 181 172 168 164 166 170 163 161
169 226 238 224 213 233 248 262 274 288 302 282 284 280 276 267 257 258 260 258 261 272 289 303 308 291 278 276 270 251 247 225 189 194 186 198 175 174 165 159 163 171 172 168
219 224 148 193 220 243 254 256 272 286 309 273 289 278 256 249 248 257 257 257 259 261 267 275 276 276 282 286 281 276 295 270 204 178 176 165 165 157 162 164 167 168 172 170
235 236 196 225 242 241 260 267 272 278 282 278 286 287 273 261 266 259 258 250 254 262 266 267 264 264 266 278 290 284 272 285 205 179 182 175 174 169 169 167 158 157 160 168
222 186 203 233 249 229 268 317 276 271 265 272 247 258 273 269 267 261 256 255 266 275 275 279 273 274 288 305 301 291 254 143 196 195 179 168 175 172 158 152 142 139 144 167
264 238 249 256 310 206 200 328 298 240 238 253 239 239 270 246 256 275 277 277 301 321 328 326 325 316 326 334 325 319 256 226 190 179 172 165 169 170 158 163 156 156 158 159
262 222 208 200 195 169 198 227 265 248 235 251 206 240 258 264 266 286 301 302 315 329 315 313 325 326 327 321 315 298 258 258 232 188 179 168 177 185 186 184 179 177 181 184
239 248 202 205 215 210 213 226 235 258 267 279 236 245 260 291 301 303 301 307 322 325 303 293 294 299 310 301 291 282 256 259 261 223 194 176 179 188 200 202 193 191 195 198
219 245 103 224 269 210 199 223 264 266 289 273 254 261 273 251 269 276 296 329 318 309 306 297 301 310 312 300 285 268 250 255 270 250 218 188 188 193 196 202 198 200 196 198
207 252 251 269 222 254 258 196 190 216 251 264 265 259 257 236 241 243 243 252 276 301 299 303 307 310 313 306 297 287 272 257 255 238 219 209 204 209 207 203 203 216 210 203
200 219 245 217 216 211 184 198 220 226 249 255 271 264 231 226 229 223 232 245 270 277 276 283 303 307 310 320 317 312 301 295 288 264 229 208 223 236 225 220 224 226 223 214
195 206 242 239 250 278 228 221 206 226 242 246 264 269 136 236 260 269 258 264 278 270 263 268 285 298 312 313 310 314 310 308 318 307 242 229 247 241 236 244 246 233 226 225
173 184 243 247 215 206 228 226 227 240 244 238 247 263 105 286 291 278 274 279 276 267 268 272 273 280 292 288 289 300 307 307 313 313 239 226 243 238 241 254 263 245 229 227
207 209 224 242 259 207 228 230 220 218 234 245 247 261 264 268 273 276 274 271 270 268 268 272 269 268 273 269 273 282 286 299 286 264 236 238 248 247 250 256 258 254 242 234
203 232 239 258 266 250 247 242 228 227 235 245 257 258 263 262 266 273 273 267 265 264 263 262 259 260 260 256 256 259 268 282 273 255 266 260 276 270 263 262 261 257 249 243
207 231 236 258 253 252 258 249 238 238 242 248 261 265 264 269 267 266 262 256 255 258 259 256 255 253 252 247 245 244 252 265 261 256 268 269 274 278 268 266 265 266 264 255
198 203 225 252 259 263 254 237 228 232 233 233 246 257 262 259 255 256 256 250 250 254 252 250 248 247 247 243 238 236 242 248 253 260 269 265 262 269 273 273 268 262 265 262
204 210 225 240 220 243 250 231 219 231 242 235 248 260 259 260 269 266 256 250 255 253 250 250 251 253 252 249 242 237 238 239 250 263 270 275 263 260 272 270 265 267 268 263
213 205 212 215 240 261 267 222 202 220 252 239 241 255 265 283 285 266 260 254 253 253 251 250 250 252 248 240 225 213 227 242 256 265 269 273 270 262 261 263 266 270 271 272
208 207 213 218 234 247 257 178 187 206 256 229 225 242 250 248 265 268 274 264 256 254 248 246 243 233 233 247 224 210 222 240 258 268 275 277 271 264 258 264 272 279 274 272
185 201 216 226 240 254 254 157 158 209 256 207 212 224 221 230 253 278 267 263 250 248 242 228 216 229 256 251 207 217 235 256 277 289 288 285 279 275 268 270 276 273 272 274
191 196 208 214 231 245 160 161 198 235 295 210 220 221 224 238 252 253 255 251 236 229 213 195 193 229 274 247 208 226 254 280 292 285 283 284 282 280 276 266 271 269 259 260
211 207 204 209 229 248 171 202 223 237 234 238 232 225 218 229 243 247 245 239 234 229 221 209 199 221 270 261 228 240 272 290 286 280 276 277 280 275 271 261 261 264 254 251
226 218 220 238 247 241 225 238 242 239 244 251 241 228 218 228 233 236 233 228 227 231 226 215 202 226 266 277 265 266 280 277 266 264 270 272 271 274 273 265 252 248 246 246
216 193 215 242 255 263 242 235 240 244 245 245 244 234 221 214 224 222 224 228 229 233 229 216 216 234 264 287 289 294 283 263 258 263 266 267 264 267 271 266 255 250 247 245
207 204 213 235 228 227 243 229 225 226 230 226 221 228 228 218 218 213 219 222 221 219 213 214 229 247 272 291 293 296 283 255 253 259 265 263 264 266 267 273 278 267 266 271